This demonstration page uses our WeatherBlox Daily Observations layout. Learn more.

Left ArrowRight Arrow

Hourly Observations for July 17, 2015

Temp ( °F °C ) Dew Point ( °F °C ) Humidity (%) Winds ( mph kmh ) Pressure ( in mb ) Visibility ( mi km ) Precip ( " mm )
12:51 am 00:51 Clear 78 25.6 60 15.6 54 54 NW 6 9 29.8 1009 10 16.0934 N/A
1:51 am 01:51 Clear 78 25.6 59 15 52 52 N N/A 29.79 1009 10 16.0934 N/A
2:51 am 02:51 Clear 76 24.4 59 15 56 56 NW 3 6 29.79 1009 10 16.0934 N/A
3:51 am 03:51 Clear 76 24.4 59 15 56 56 NW 3 6 29.79 1009 10 16.0934 N/A
4:51 am 04:51 Clear 77 25 73 22.8 88 88 SW 5 7 29.94 1014 10 16.0934 N/A
5:51 am 05:51 Mostly Cloudy 75 23.9 60 15.6 60 60 N N/A 29.83 1010 10 16.0934 N/A
6:51 am 06:51 Mostly Sunny 76 24.4 61 16.1 60 60 ENE 5 7 29.85 1011 10 16.0934 N/A
7:51 am 07:51 Partly Cloudy 80 26.7 58 14.4 47 47 E 8 13 29.88 1012 10 16.0934 N/A
8:51 am 08:51 Partly Cloudy 81 27.2 60 15.6 49 49 SSE 9 15 29.88 1012 10 16.0934 N/A
9:51 am 09:51 Sunny 82 27.8 60 15.6 47 47 NE 7 11 29.9 1012 10 16.0934 N/A
10:51 am 10:51 Mostly Sunny 78 25.6 60 15.6 54 54 NW 16 26 29.91 1013 10 16.0934 N/A
11:51 am 11:51 Sunny 82 27.8 59 15 46 46 WNW 17 28 29.88 1012 10 16.0934 N/A
12:51 pm 12:51 Mostly Sunny 76 24.7 76 24.2 97 97 WNW 18 30 29.86 1011 10 16.0934 N/A
1:51 pm 13:51 Sunny 85 29.4 60 15.6 43 43 WNW 16 26 29.84 1010 10 16.0934 N/A
2:51 pm 14:51 Mostly Sunny 84 28.9 56 13.3 38 38 W 18 30 29.82 1010 10 16.0934 N/A
3:51 pm 15:51 Sunny 84 28.9 57 13.9 40 40 WNW 12 19 29.81 1010 10 16.0934 N/A
4:51 pm 16:51 Sunny 84 28.9 56 13.3 38 38 NW 12 19 29.78 1009 10 16.0934 N/A
5:51 pm 17:51 Cloudy 83 28.3 56 13.3 40 40 NW 12 19 29.78 1008 10 16.0934 N/A
6:51 pm 18:51 Sunny 87 30.7 78 25.6 74 74 NW 8 13 30.16 1021 10 16.0934 N/A
7:51 pm 19:51 Clear 80 26.7 57 13.9 45 45 WNW 6 9 29.79 1009 10 16.0934 N/A
8:51 pm 20:51 Mostly Cloudy 78 25.6 59 15 52 52 W 7 11 29.82 1010 10 16.0934 N/A
9:51 pm 21:51 Mostly Clear 77 25 61 16.1 58 58 W 7 11 29.84 1010 10 16.0934 N/A
10:51 pm 22:51 Clear 74 23.3 62 16.7 67 67 NNW 3 6 29.85 1011 10 16.0934 N/A
11:51 pm 23:51 Clear 73 22.8 64 17.8 74 74 NE 3 6 29.85 1011 10 16.0934 N/A

Powered by AerisWeather